Flag for Switzerland Weather past 2 weeks in Altdorf, Uri, Switzerland

Now
60 °F

Cool.


Feels Like: 60 °F
Forecast: 49 / 74 °F
Wind: 1 mph from Southeast

Location: Altdorf

Current Time: Aug 21, 2014 at 10:02:51 PM

Latest Report: Aug 21, 2014 at 9:00 PM


Visibility: N/A

Pressure: 30.01 "Hg

Humidity: 80%

Dew point: 54 °F

Location of AltdorfLocation

Historic Weather in Altdorf — Graph

°F

Altdorf temperature yesterday

Maximum temperature yesterday: 63 °F (at 12:00 AM)
Minimum temperature yesterday: 57 °F (at 11:00 PM)
Average temperature yesterday: 61 °F

Past Weeks' High & Low Weather Summary

 TemperatureHumidityPressure
High86 °F (Aug 10, 3:00 PM)96% (Aug 8, 7:00 AM)30.22 "Hg (Aug 8, 7:00 AM)
Low46 °F (Aug 17, 6:00 AM)36% (Aug 10, 3:00 PM)29.64 "Hg (Aug 13, 10:00 AM)
Average63 °F77%29.96 "Hg
* Reported Aug 6 8:00 PM — Aug 21 8:00 PM, Altdorf, Weather by CustomWeather, © 2014

Note: Actual official high and low records may vary slightly from our data, if they occured in-between our weather recording intervals... More about our weather records

Advertising

Altdorf weather history for previous 24 hours

 ConditionsComfort  
Time TempWeatherWind HumidityBarometerVisibility
8:00 PM
Aug 21
61 °FOvercast.1 mph80%30.00 "Hg11 mi
7:00 PM64 °FMild.2 mph62%29.98 "HgN/A
6:00 PM64 °FMild.7 mph63%29.98 "HgN/A
5:00 PM65 °FPartly sunny.13 mph55%29.98 "Hg12 mi
4:00 PM65 °FMild.14 mph53%29.98 "HgN/A
3:00 PM67 °FMild.15 mph53%29.98 "HgN/A
2:00 PM66 °FScattered clouds.14 mph58%30.00 "Hg14 mi
1:00 PM65 °FMild.10 mph60%30.02 "HgN/A
12:00 PM63 °FMild.8 mph65%30.04 "HgN/A
11:00 AM61 °FScattered clouds.6 mph76%30.05 "Hg16 mi
10:00 AM57 °FCool.5 mph79%30.07 "HgN/A
9:00 AM56 °FCool.2 mph87%30.08 "HgN/A
8:00 AM53 °FPartly sunny.No wind94%30.09 "Hg12 mi
7:00 AM53 °FCool.2 mph92%30.09 "HgN/A
6:00 AM53 °FCool.3 mph93%30.09 "HgN/A
5:00 AM52 °FLight rain. Overcast.1 mph96%30.10 "Hg9 mi
4:00 AM54 °FCool.1 mph93%30.10 "HgN/A
3:00 AM55 °FCool.3 mph87%30.09 "HgN/A
2:00 AM56 °FRain. Overcast.7 mph84%30.07 "Hg9 mi
1:00 AM56 °FCool.12 mph82%30.06 "HgN/A
12:00 AM57 °FCool.3 mph93%30.04 "HgN/A
11:00 PM
Aug 20
57 °FCool.2 mph90%30.02 "HgN/A
10:00 PM58 °FCool.1 mph84%30.02 "HgN/A
Weather by CustomWeather, © 2014

See weather overviewHow to use our weather pages